sat.trackr.live / text

‹ back to catalog

HULIANWANG DIGUI-117

NORAD 66956 · 2025-287D

PAYLOAD ACTIVE UNKNOWN

§ Identity

Operator
Country
PRC
Launch date
2025-12-08
Launch site
TAISC
Launch vehicle
Mass (kg)
RCS (m²)

External: N2YO · Heavens-Above · Gunter

§ Orbital elements

Epoch: 2026-05-24T22:13:18.612768Z

Period
108.73 min
Inclination
86.4931°
Eccentricity
0.0003043
Mean motion
13.24412775 rev/d
Perigee alt
1,165.6 km
Apogee alt
1,170.2 km
Semi-major
7,546.0 km
B*
2.8576e-5
RAAN
290.2395°
Arg perigee
94.4166°
Mean anomaly
265.7316°
Rev number
2,226

§ Raw data

HULIANWANG DIGUI-1171 66956U 25287D   26144.92590987  .00000027  00000+0  28576-4 0  99922 66956  86.4931 290.2395 0003043  94.4166 265.7316 13.24412775 22263

JSON: /api/v1/satellites/66956 · /tle

For live sub-satellite position, see the globe view (requires WebGL).

§ Visibility from observer

Set your observer location to see the next 7 days of passes ≥ 10°. The values pass through the URL so the page stays shareable.

No JS? Fill the form by hand. The geolocation button needs JavaScript.